Theta_e
342 345 343 339 338 338 337 337 335 332 335 337 337 336 336 336 335 335 333 332 331 329 324 330 333 334 333 332 332 331 331 329 324 319 319 323 328 330 331 330 329 330 330
345 344 343 341 338 335 334 333 334 335 336 338 338 338 339 339 338 337 335 334 335 335 324 326 333 334 333 333 332 332 331 328 329 323 321 321 327 329 330 330 329 330 331
344 342 341 338 335 331 324 327 330 333 334 336 336 338 340 341 341 340 339 339 340 338 332 320 329 334 335 335 332 333 333 333 331 329 323 321 320 325 329 331 330 329 331
331 336 333 331 321 322 329 333 336 339 340 337 339 341 343 343 343 342 342 341 340 335 335 338 324 331 335 335 333 333 333 333 332 329 326 322 321 321 327 329 332 330 331
323 323 326 331 320 323 334 331 331 332 335 329 332 342 342 344 344 343 342 342 340 337 341 340 340 337 336 334 333 333 332 332 332 332 330 323 320 324 326 329 331 333 332
321 325 325 326 320 329 334 332 333 332 332 330 332 343 344 344 344 344 343 343 341 342 341 341 341 339 338 334 334 332 332 332 332 332 329 328 321 322 324 327 327 330 333
325 331 333 323 320 326 334 332 333 333 333 332 332 344 346 344 342 342 343 343 342 342 340 339 337 343 339 338 336 335 333 332 332 332 330 329 324 321 321 320 322 326 332
335 329 328 325 321 321 334 333 332 333 338 333 338 345 343 343 346 344 343 343 343 341 341 339 341 339 339 338 335 337 334 332 331 332 331 329 329 322 321 320 320 328 332
338 338 336 329 323 324 335 333 333 332 340 346 338 342 341 344 343 345 345 343 342 341 340 339 339 336 339 337 338 338 334 330 330 332 331 329 329 325 322 321 320 326 330
337 339 339 337 328 327 336 335 335 336 335 342 347 344 339 344 347 341 344 343 342 342 340 339 338 335 335 337 335 334 335 333 331 330 331 330 330 328 322 321 321 322 325
339 342 344 341 338 330 334 336 341 337 340 342 345 345 345 343 345 346 343 341 343 341 339 338 336 337 337 335 334 334 335 331 329 330 331 330 330 329 323 322 322 324 324
339 332 335 343 337 341 333 334 335 333 333 339 345 343 345 346 345 345 340 341 340 340 339 336 336 336 334 334 334 333 334 333 328 329 331 331 329 328 324 323 321 323 326
340 346 349 345 343 342 334 341 336 336 335 340 341 338 345 345 344 342 342 339 339 338 339 338 335 334 334 334 334 334 331 328 329 329 330 330 328 328 326 324 321 321 325
329 339 347 349 346 347 338 335 339 339 339 340 337 331 343 345 344 344 342 341 339 335 337 334 336 333 333 334 334 333 330 328 329 329 330 329 329 327 327 325 322 323 326
327 333 338 348 345 345 344 340 341 343 339 340 329 328 335 347 345 343 341 340 338 336 336 336 334 335 334 334 333 333 331 331 329 329 328 328 329 327 325 326 323 326 325
322 328 333 343 339 334 343 348 345 344 339 334 326 334 344 347 346 344 341 338 339 334 333 335 337 336 334 330 332 331 332 332 331 329 328 329 328 326 325 326 324 326 325
330 318 319 335 341 336 346 346 342 340 335 328 334 345 346 346 345 340 341 340 335 334 333 334 336 335 332 326 330 326 326 330 330 328 327 328 327 325 325 325 326 326 325
331 333 328 326 335 342 342 338 338 341 336 343 346 346 348 346 341 341 341 338 334 334 334 333 336 335 329 327 329 327 326 329 331 329 327 326 327 327 324 326 327 325 327
333 334 336 339 340 344 347 342 339 341 347 348 346 348 346 344 343 341 339 338 335 335 335 334 335 334 332 330 330 331 329 329 329 328 328 327 327 326 325 328 328 325 330
336 335 335 337 341 346 347 348 346 347 348 347 347 345 345 343 343 339 340 337 337 335 333 333 333 334 331 331 330 331 328 328 328 329 328 327 327 325 328 328 326 328 329
336 336 336 338 341 344 345 346 347 347 347 347 346 345 344 343 342 339 337 336 334 334 335 332 332 333 332 331 330 329 329 328 325 328 328 327 327 328 329 328 327 327 329
335 337 336 338 340 344 344 345 347 346 347 346 344 344 342 341 340 337 332 335 335 333 332 334 332 331 331 332 330 331 329 323 326 325 328 327 327 327 328 325 326 328 329
336 336 337 339 342 345 344 344 345 347 346 344 343 341 342 340 337 332 330 330 333 331 331 331 333 332 331 332 329 330 328 326 328 327 326 327 327 327 327 327 328 328 329
337 335 339 344 345 346 343 342 345 346 344 342 342 340 338 338 335 334 333 329 329 331 329 328 330 329 331 331 328 330 328 328 328 326 327 328 329 329 328 328 328 328 330
336 336 342 344 344 346 343 342 343 344 343 343 340 340 338 337 334 332 335 333 332 331 330 329 328 327 327 327 328 328 329 329 327 326 326 328 327 327 327 328 329 328 328
334 338 344 343 343 345 344 341 341 342 341 341 339 338 336 335 335 330 331 332 331 331 330 329 327 326 327 327 327 327 328 327 327 326 324 327 327 328 326 327 326 328 327
Wind_Speed
19 15 14 12 11 9 11 10 11 13 15 14 13 15 15 15 15 14 15 22 21 21 20 19 17 15 13 13 13 13 10 8 12 14 15 15 15 15 16 15 14 13 12
19 16 15 14 13 12 11 12 14 13 12 12 12 15 15 15 15 15 14 17 21 20 20 20 20 18 15 15 16 16 15 11 12 14 15 15 16 16 16 17 15 13 12
22 20 17 16 14 14 12 11 15 14 13 13 15 15 15 15 16 16 16 16 17 21 16 21 21 21 18 17 16 17 17 15 13 13 16 16 16 17 17 16 16 15 15
23 26 22 20 16 16 12 8 10 10 10 10 18 14 13 14 15 17 16 16 15 15 19 15 18 21 20 18 17 18 16 15 14 13 15 17 16 18 17 16 17 17 15
29 29 27 23 18 18 15 12 9 9 14 17 21 17 15 15 16 16 17 17 17 16 14 17 16 18 19 19 19 19 18 16 16 15 15 18 17 17 16 15 18 16 16
33 36 28 24 23 23 19 16 17 11 16 20 20 17 17 17 16 17 18 19 17 17 15 17 18 17 17 18 18 19 19 18 17 17 16 17 18 17 16 15 16 16 15
29 36 39 33 29 28 27 24 21 21 27 26 21 17 17 20 22 18 21 19 18 19 17 20 22 14 21 18 17 17 20 21 20 19 17 16 19 18 17 16 17 16 17
34 39 49 43 40 33 34 32 25 25 22 23 18 12 16 14 21 22 16 19 19 18 18 20 17 17 17 15 18 18 18 20 20 20 17 16 17 19 19 17 16 17 16
28 36 45 41 42 37 40 34 30 26 17 16 24 18 8 10 11 14 15 15 18 17 14 15 16 16 17 16 17 18 23 19 19 21 19 16 16 20 20 18 17 18 18
32 35 37 43 43 43 46 37 28 24 22 20 16 24 22 17 7 11 9 13 14 16 17 14 15 18 14 17 14 20 22 17 19 21 20 18 16 19 21 20 18 18 19
36 34 40 42 42 49 50 37 24 21 15 24 20 19 17 18 22 18 21 17 17 13 14 14 12 12 14 13 17 18 17 19 19 19 20 20 17 19 22 21 20 18 18
39 43 57 48 51 50 45 37 29 22 23 34 27 23 17 14 15 18 19 21 19 17 16 12 12 12 12 16 13 17 19 19 18 19 20 19 18 19 22 22 21 19 17
31 39 43 40 43 49 48 37 32 31 35 30 33 28 22 21 18 18 20 18 19 11 12 9 13 13 12 13 15 16 17 17 14 18 20 19 18 18 22 22 22 19 18
33 31 33 34 38 39 46 48 42 36 33 33 29 32 26 25 21 18 21 18 22 16 11 15 11 13 12 12 15 16 15 11 14 16 17 20 18 18 22 22 21 19 18
34 29 31 33 36 35 37 40 40 36 34 33 29 27 25 22 24 18 19 19 17 18 14 16 13 12 11 12 14 13 9 14 12 16 17 18 19 19 21 21 20 19 18
35 33 32 36 42 32 31 35 31 33 32 31 26 21 23 22 23 19 21 21 15 15 15 8 12 9 11 14 16 15 14 16 16 16 17 19 19 19 21 20 21 19 19
33 38 41 34 36 32 33 38 38 33 31 29 23 22 26 23 20 20 19 16 15 15 14 9 5 11 16 16 14 14 15 11 14 14 18 19 20 19 20 20 20 19 21
32 33 33 35 37 35 37 38 35 29 29 24 23 24 25 21 25 22 19 17 16 15 16 14 10 10 12 11 11 12 13 10 12 14 21 21 19 19 20 20 20 21 22
29 30 30 31 32 33 34 35 35 31 27 24 23 28 24 24 24 23 20 16 17 16 14 18 11 11 9 10 13 11 12 11 11 12 16 23 19 19 20 20 20 21 21
28 31 32 32 34 33 34 31 29 29 28 23 28 26 23 24 24 22 18 18 15 15 17 15 13 12 10 12 12 12 11 10 10 10 13 19 19 20 20 18 18 20 18
28 32 33 35 36 35 35 34 33 30 30 27 27 24 24 22 20 16 15 17 17 17 16 17 16 14 12 11 15 12 9 12 11 12 14 16 18 19 18 20 19 20 20
29 32 35 37 38 38 38 38 34 32 31 27 27 23 21 22 22 23 21 19 18 21 19 17 15 19 15 14 15 14 11 12 10 14 13 16 16 18 20 19 19 19 19
31 36 37 38 39 41 40 39 35 34 30 28 26 24 22 18 24 21 21 22 21 19 19 18 16 16 16 16 14 16 13 11 8 12 16 16 16 15 16 20 20 18 17
33 37 39 40 40 42 38 38 40 29 28 24 24 26 25 19 18 16 15 19 19 17 20 19 17 19 18 16 16 16 16 15 13 11 15 15 16 17 18 17 16 16 20
36 40 40 40 40 41 40 41 40 26 24 23 22 20 19 17 17 20 16 15 14 16 17 17 19 19 18 18 16 18 17 16 11 9 17 18 19 18 18 17 17 17 20
37 40 41 40 39 43 42 38 36 23 25 22 20 18 20 18 19 17 18 15 16 15 17 18 16 13 14 16 16 16 15 16 12 11 16 19 18 19 15 20 18 18 22
Wind_Direction
214 223 218 214 230 229 244 246 245 252 258 263 262 265 271 269 265 265 258 274 275 274 253 247 247 250 263 257 253 256 267 271 252 238 236 235 233 231 235 239 243 262 254
223 218 222 225 225 231 231 244 250 254 272 266 269 267 269 268 270 266 264 267 278 283 259 246 246 249 257 263 253 257 258 271 260 246 237 234 235 234 237 239 243 249 251
211 216 222 229 232 235 245 256 249 254 261 272 287 278 269 272 272 268 263 260 269 279 281 247 246 248 256 271 257 256 255 264 256 255 242 233 234 237 238 238 240 244 246
230 237 229 237 236 239 239 262 243 241 242 297 292 268 264 272 269 269 265 260 261 257 273 278 253 247 256 267 262 255 257 259 255 260 247 236 233 235 237 236 238 240 244
248 245 240 236 238 235 228 228 228 242 255 279 281 262 269 261 260 267 264 261 259 242 252 275 266 253 260 263 260 255 257 259 257 259 251 239 233 232 233 234 235 242 246
253 254 233 235 244 230 227 225 244 242 256 260 267 267 262 256 262 267 258 260 253 252 253 260 270 268 272 257 267 260 256 261 259 253 250 241 234 231 230 228 234 241 242
251 242 241 248 249 232 230 234 245 246 256 265 273 276 271 271 296 284 251 254 255 248 250 251 254 260 267 272 271 272 262 260 260 248 243 243 235 229 230 228 234 242 220
249 251 251 254 253 236 231 233 250 249 248 254 256 266 275 277 269 280 259 243 251 252 253 268 257 261 265 260 276 269 271 255 252 243 241 241 234 228 227 225 226 233 221
274 265 256 249 248 239 228 232 245 241 232 238 266 250 265 258 284 248 239 237 247 254 250 256 260 262 261 256 259 274 275 254 244 241 239 237 238 227 225 224 224 222 223
283 283 264 258 241 237 225 232 241 248 251 241 239 262 249 242 274 270 235 248 228 240 247 249 270 269 254 261 255 251 262 256 244 244 239 239 241 227 221 222 224 224 227
271 275 278 263 245 234 229 223 239 238 253 265 240 240 261 250 249 261 275 255 221 234 243 249 262 259 263 254 253 262 260 265 252 241 233 238 239 225 218 220 222 224 228
252 254 264 253 243 238 226 235 225 249 274 258 248 232 234 239 238 243 258 259 255 248 226 232 254 263 259 266 262 250 251 259 247 236 231 237 234 222 216 218 221 224 228
242 239 249 251 235 236 231 226 236 253 261 248 242 242 232 238 244 250 263 258 263 229 201 230 249 254 255 253 260 258 266 250 241 230 227 231 232 223 216 218 222 223 228
244 244 248 248 240 232 238 237 243 240 254 249 242 252 224 235 235 244 253 253 257 257 234 252 228 236 253 256 251 260 265 249 238 229 226 227 225 218 217 218 219 221 225
241 239 246 246 249 244 240 243 239 243 246 242 246 246 233 233 236 240 243 237 254 269 249 238 230 216 216 256 258 258 245 255 245 230 229 224 220 223 217 217 216 220 224
246 241 240 246 251 246 236 232 233 237 238 237 242 238 231 224 236 230 233 230 249 253 273 204 202 210 235 247 245 247 245 247 249 235 228 221 219 220 217 217 215 218 220
265 251 248 241 248 243 227 234 237 234 230 233 232 223 228 221 224 223 218 226 238 243 249 251 207 232 251 256 245 248 244 245 250 241 225 220 223 219 216 218 216 219 219
262 258 258 256 238 231 231 234 229 217 223 219 218 217 217 220 214 213 214 225 233 242 239 252 231 241 258 253 258 262 249 231 237 243 222 220 220 215 213 217 218 217 218
260 254 243 242 235 226 224 224 219 206 212 207 216 212 216 213 214 218 207 224 233 239 243 243 247 227 244 243 241 235 250 246 238 239 226 216 214 210 211 218 221 216 213
257 251 238 234 225 223 217 213 207 204 206 209 212 215 211 214 214 215 213 218 224 229 229 235 232 219 236 233 232 242 241 229 220 211 204 198 205 209 212 213 212 210 212
253 249 234 231 223 217 212 207 205 200 206 206 210 210 211 210 212 211 214 226 223 224 232 233 240 225 228 223 224 230 227 214 222 215 203 201 205 208 211 210 208 211 212
250 243 231 227 220 215 211 206 199 197 203 202 202 203 205 210 204 212 216 217 216 223 227 230 238 235 233 231 223 217 212 202 212 211 193 201 213 215 215 213 207 203 208
246 237 228 222 216 210 206 205 195 200 197 197 206 200 197 203 215 221 222 221 229 235 234 232 235 242 241 222 226 212 210 211 208 227 196 203 209 214 210 206 204 207 199
241 228 222 216 207 201 200 203 198 192 194 203 200 201 196 204 221 205 214 220 227 239 242 244 248 246 239 241 240 216 205 197 214 226 198 207 198 202 202 206 210 203 203
231 221 215 205 199 194 199 201 190 188 185 188 193 193 196 205 226 206 205 217 220 228 238 243 244 256 248 239 225 210 192 198 209 215 204 212 207 204 206 208 202 206 209
224 217 205 197 193 196 197 193 178 176 182 181 180 193 203 202 214 211 209 216 222 226 238 249 242 235 231 223 213 206 210 205 202 213 213 214 219 211 221 218 205 217 205